This demonstration page uses our WeatherBlox Daily Observations layout. Learn more.

41.86663, -103.66717

Hourly Observations for June 23, 2019

Temp ( °F °C ) Dew Point ( °F °C ) Humidity (%) Winds ( mph kmh ) Pressure ( in mb ) Visibility ( mi km ) Precip ( " mm )
12:53 am 00:53 Mostly Cloudy 55 12.8 52 11.1 90 90 Calm 29.94 1014 10 16.0934 0 0
1:53 am 01:53 Clear 54 12.2 54 12.2 100 100 Calm 29.93 1013 10 16.0934 0 0
2:53 am 02:53 Mostly Cloudy 53 11.7 53 11.7 100 100 W 8 13 29.88 1012 10 16.0934 0 0
3:53 am 03:53 Cloudy 53 11.7 53 11.7 100 100 Calm 29.88 1012 10 16.0934 0 0
4:53 am 04:53 Cloudy 53 11.7 53 11.7 100 100 N 6 9 29.88 1012 10 16.0934 0 0
5:53 am 05:53 Cloudy 52 11.1 52 11.1 100 100 W 3 6 29.9 1013 10 16.0934 0 0
6:53 am 06:53 Cloudy 52 11.1 45 7.2 77 77 W 17 28 29.92 1013 10 16.0934 0 0
7:53 am 07:53 Mostly Cloudy 51 10.6 44 6.7 77 77 WNW 15 24 29.93 1014 10 16.0934 0 0.0254
8:53 am 08:53 Mostly Cloudy 53 11.7 45 7.2 74 74 W 10 17 29.94 1014 10 16.0934 0 0
9:53 am 09:53 Mostly Cloudy 54 12.2 47 8.3 77 77 W 10 17 29.95 1014 10 16.0934 0 0
10:53 am 10:53 Mostly Cloudy 55 12.8 49 9.4 80 80 W 15 24 29.94 1014 10 16.0934 0 0
11:10 am 11:10 Cloudy with Nearby Thunderstorms 54 12 48 9 82 82 WNW 21 33 29.93 1013 10 16.0934 0 0
11:29 am 11:29 Cloudy with Light Rain 54 12.2 50 10 87 87 WNW 17 28 29.92 1013 10 16.0934 0 0.0254
11:53 am 11:53 Cloudy 55 12.8 51 10.6 87 87 W 14 22 29.95 1014 10 16.0934 0 0.0254
12:53 pm 12:53 Cloudy 53 11.7 49 9.4 86 86 NNW 16 26 29.97 1015 10 16.0934 0 0
1:53 pm 13:53 Cloudy with Rain 50 10 N/A N/A NNW 12 19 29.98 1015 4 6.43736 0.15 3.81
2:53 pm 14:53 Mostly Cloudy 56 13.3 50 10 81 81 NE 10 17 29.94 1014 10 16.0934 0.09 2.286
3:53 pm 15:53 Mostly Cloudy 60 15.6 48 8.9 65 65 VRB 3 6 29.91 1013 10 16.0934 0 0
4:53 pm 16:53 Sunny 64 17.8 49 9.4 58 58 VRB 7 11 29.88 1012 10 16.0934 0 0
5:53 pm 17:53 Sunny 65 18.3 50 10 59 59 WSW 6 9 29.87 1012 10 16.0934 0 0
6:53 pm 18:53 Sunny 65 18.3 49 9.4 56 56 W 5 7 29.86 1011 10 16.0934 0 0
7:53 pm 19:53 Sunny 61 16.1 49 9.4 65 65 W 3 6 29.88 1012 10 16.0934 0 0
8:53 pm 20:53 Clear 57 13.9 50 10 78 78 ESE 5 7 29.88 1012 10 16.0934 0 0
9:53 pm 21:53 Clear 54 12.2 49 9.4 83 83 SSE 6 9 29.89 1012 10 16.0934 0 0
10:53 pm 22:53 Clear 54 12.2 48 8.9 80 80 Calm 29.9 1012 10 16.0934 0 0
11:53 pm 23:53 Clear 49 9.4 49 9.4 100 100 E 6 9 29.89 1012 10 16.0934 0 0

Powered by AerisWeather